Voltar ao catálogo

ORBCOMM FM 103

AtivoComunicaçõesLEO
NORAD 40091·PAYLOAD·🇺🇸 United States

Lançado Jul 14, 2014 de Cape Canaveral Space Force Station

Loading…

Próximas Passagens (próximas 24 horas)

TLE

AtualizadoSource: Space-Track

Época: Sep 13, 2026, 15:41 UTC

1 40091U 14040F   26256.65365641  .00000302  00000-0  10008-3 0  9997
2 40091  47.0061  34.8136 0002087 210.6989 149.3775 14.58917353630305

Acompanhe ORBCOMM FM 103 em tempo real com AllMySat

Download on the App Store